Wind_Speed
10 10 10 10 9 9 9 9 9 9 8 8 9 11 11 10 10 10 11 12 14 17 19 21 21 22 24 27 30 34 35 34 32 29 29 33 39 43 42 37 32 29 27 24 23 24 28 31 32 32 32 33 32 30 27 25 25 25 25 24 23 22 21 20 19 18 18 18 18 16 15 15 14 13 12 12 13 14 16 17 19 20 21 22 23 26
9 9 9 9 9 9 10 10 10 9 9 8 8 10 11 11 11 10 10 10 12 13 15 17 18 20 24 27 30 33 34 32 29 28 29 35 40 41 40 36 33 30 28 25 24 25 29 32 33 33 34 33 32 29 27 26 26 26 26 26 26 24 22 20 19 19 20 19 17 15 14 13 13 12 12 13 14 16 17 19 20 20 21 22 24 26
8 8 8 9 9 9 10 10 10 9 9 8 8 10 12 13 13 13 12 12 12 13 14 15 17 20 25 28 30 30 31 30 29 29 31 35 38 39 37 35 33 31 29 26 24 26 31 34 36 36 36 35 32 29 27 27 28 28 28 27 27 24 22 19 19 21 22 21 18 15 13 12 12 11 12 14 16 17 19 20 20 21 22 23 25 27
8 8 8 8 9 9 9 9 9 9 10 10 9 10 11 14 15 16 15 15 15 15 15 16 17 21 26 29 29 28 28 28 29 30 32 35 37 37 36 35 34 32 30 27 25 27 32 37 39 39 39 36 32 30 29 30 30 29 29 28 26 23 20 19 20 22 24 22 19 15 13 12 11 12 14 16 17 19 20 20 20 21 22 24 26 28
7 7 7 9 9 9 9 9 9 10 11 11 11 11 11 13 16 17 17 17 17 17 17 18 20 23 27 29 29 28 28 28 28 29 31 33 35 36 36 34 32 29 27 25 26 29 35 40 42 42 40 36 33 32 32 33 33 31 30 28 25 22 20 20 21 24 25 24 20 17 14 13 13 14 16 17 19 19 20 20 20 21 23 25 27 28
4 3 3 5 8 9 10 10 11 12 12 12 12 12 13 14 16 17 19 19 19 19 18 19 22 25 28 29 29 29 28 28 27 27 28 30 32 33 32 29 27 24 23 24 28 33 39 43 45 43 40 37 35 35 36 36 35 33 31 28 25 22 20 21 23 25 26 25 22 18 15 14 14 16 17 19 19 20 20 20 20 22 23 25 27 27
3 4 3 2 3 7 9 10 12 13 14 14 13 13 14 14 16 17 19 21 21 20 18 18 20 23 26 28 28 29 29 29 28 26 25 26 26 25 25 24 24 24 24 27 31 37 42 45 45 43 39 37 37 38 39 37 35 33 31 28 25 22 21 22 24 26 26 26 24 20 17 16 16 18 19 19 19 19 20 20 21 22 24 26 27 26
5 6 6 4 3 4 6 8 10 13 15 15 14 13 13 13 15 16 18 20 20 19 18 17 17 19 22 23 25 27 29 30 29 26 24 23 22 21 22 23 26 28 28 29 33 38 42 43 43 41 39 39 40 41 39 37 34 32 30 28 26 25 24 24 25 26 27 27 26 23 21 19 18 19 19 19 19 19 19 20 21 23 25 25 25 24
5 6 5 5 5 5 5 6 7 10 14 15 13 12 13 12 13 15 18 19 19 19 18 17 16 16 18 19 20 22 24 24 24 23 22 23 24 24 24 25 28 30 30 30 33 38 41 42 42 41 41 42 42 40 37 34 31 30 29 28 28 27 26 26 27 27 28 29 29 28 25 22 21 20 20 19 18 18 19 20 22 23 24 24 24 22
4 6 6 7 6 5 4 4 5 7 10 12 13 13 13 12 11 12 14 16 18 19 19 17 16 15 15 16 17 17 18 18 17 17 19 23 26 28 28 26 27 29 32 34 36 39 41 43 43 43 43 43 41 38 34 31 29 29 29 29 29 29 28 28 28 29 30 31 32 32 29 26 23 21 19 17 17 18 19 21 22 23 23 23 22 20
3 4 6 7 7 6 5 4 4 5 8 10 12 13 14 13 11 10 10 11 14 17 18 17 17 16 15 14 15 16 16 16 16 17 19 22 25 28 29 27 25 27 33 37 40 41 42 43 43 43 42 40 37 34 31 29 29 29 30 30 30 30 29 29 30 30 31 33 34 34 32 28 24 21 18 16 16 18 20 21 22 22 22 21 20 19
4 4 4 6 7 7 7 6 6 7 8 9 11 13 14 14 13 12 11 10 10 12 14 16 17 17 17 16 15 15 16 17 18 20 21 22 24 26 29 28 27 28 33 38 40 40 40 39 38 37 35 34 32 30 29 29 29 30 31 31 30 30 30 30 30 31 32 33 34 34 31 28 24 20 17 15 16 18 20 21 22 21 20 19 18 18
7 6 5 5 6 7 8 8 9 9 10 11 12 13 14 15 14 13 13 13 12 12 12 14 16 18 19 19 18 17 16 17 19 21 22 23 24 26 28 29 28 29 32 36 38 37 35 33 31 29 28 27 26 26 27 28 29 30 31 31 31 30 30 30 30 31 32 33 33 31 29 26 22 18 14 14 16 19 20 21 20 19 18 17 17 17
8 8 8 8 8 8 9 10 11 11 12 13 13 14 14 15 14 14 14 14 15 15 15 15 16 17 19 21 22 21 19 18 19 20 22 23 25 27 28 29 29 29 30 33 35 35 34 32 29 27 26 25 25 25 26 28 29 30 31 31 31 30 30 30 31 32 32 32 30 28 25 22 18 14 12 15 17 19 20 19 18 17 16 15 16 17
8 8 9 10 10 10 10 11 11 12 13 14 15 15 16 16 16 15 15 15 16 16 17 17 17 17 17 20 22 24 23 21 21 21 22 23 24 26 27 28 29 29 29 30 32 33 33 33 31 30 29 27 27 27 28 30 31 32 32 31 30 30 30 31 31 31 30 28 26 23 20 17 13 11 13 16 18 19 19 18 16 15 14 15 16 17
7 8 10 11 11 12 12 13 13 13 14 14 15 16 17 17 18 18 17 17 16 17 17 18 18 18 19 19 22 24 25 25 25 24 24 25 25 27 28 29 30 31 31 31 31 32 32 33 32 32 31 30 29 30 31 32 33 33 32 31 30 30 31 31 30 28 26 23 21 18 15 12 10 11 14 17 18 18 17 16 14 13 13 14 15 16
6 7 9 11 12 13 14 14 15 15 15 15 15 16 17 18 18 19 19 19 19 18 17 17 18 19 21 22 23 25 27 28 29 29 29 29 29 29 29 30 31 32 33 33 33 33 32 32 32 31 31 31 32 33 33 34 33 33 32 31 30 30 29 28 26 24 21 19 16 14 11 10 11 13 16 17 18 17 16 14 13 12 13 14 15 16
9 7 7 9 11 13 14 15 16 17 17 17 17 17 16 17 18 19 20 20 21 21 20 18 17 16 18 21 24 25 27 29 31 32 33 34 33 31 30 29 30 31 32 32 32 32 32 31 31 31 32 33 34 34 34 33 32 32 31 30 30 29 27 25 22 20 18 16 13 11 10 10 12 15 17 17 17 16 14 12 11 12 13 14 15 15
11 10 8 7 8 9 11 13 14 16 17 19 19 19 18 18 19 19 19 20 21 22 22 21 19 16 14 16 20 23 26 28 30 33 35 35 34 33 31 30 30 30 31 31 31 31 32 32 33 33 34 34 34 33 32 31 30 30 29 29 28 26 24 22 20 18 16 14 11 10 10 12 14 16 17 17 16 14 12 11 11 12 13 14 14 14
13 12 11 9 8 7 7 9 11 13 16 18 20 20 20 20 20 20 20 20 21 21 22 22 21 19 15 14 16 20 23 25 27 29 31 32 33 34 35 34 33 32 32 32 33 33 34 34 35 35 35 34 32 31 29 28 28 28 27 27 25 24 22 20 19 17 15 13 11 11 12 14 16 17 17 17 14 12 11 10 11 12 13 13 13 13
14 14 13 12 10 8 7 7 8 10 13 17 19 21 21 21 21 20 20 20 20 20 21 21 20 19 17 15 15 18 20 23 24 25 26 29 32 34 36 36 35 34 34 34 35 36 37 37 37 35 34 31 29 27 26 26 26 26 25 24 23 22 20 19 18 17 15 13 12 12 14 16 17 17 17 16 13 11 10 10 11 12 12 13 12 11
15 15 14 14 13 11 8 6 7 9 11 15 17 19 20 21 21 21 20 20 20 19 18 18 17 17 17 16 16 18 20 21 22 24 25 29 32 35 36 36 35 36 36 37 38 38 38 37 35 33 30 28 26 25 25 25 24 24 23 22 22 21 20 19 18 17 15 13 13 14 16 17 18 18 17 14 11 10 9 10 11 12 12 12 11 9
16 15 15 15 14 13 11 8 7 8 10 12 15 17 18 19 19 20 20 20 19 19 18 17 17 17 17 17 18 19 19 20 22 25 29 31 33 34 35 35 36 37 38 38 38 37 36 34 31 28 26 25 24 24 24 23 23 22 22 22 21 21 20 19 18 17 15 14 15 16 17 18 19 19 16 13 10 9 9 10 11 11 11 11 9 6
16 16 15 15 14 14 13 11 9 8 9 11 13 14 16 17 17 18 18 19 20 20 20 19 17 16 16 16 16 17 19 20 24 28 32 32 32 34 35 37 37 37 36 35 34 33 30 28 25 23 23 23 23 22 22 22 22 22 22 22 22 21 20 19 18 17 16 15 16 17 18 19 20 18 14 11 9 8 9 10 11 11 10 9 7 4
16 16 15 15 14 14 13 12 11 10 10 10 11 13 14 16 17 17 18 18 19 19 19 18 16 14 14 14 14 15 18 21 26 31 33 33 34 36 38 38 37 35 32 30 28 26 24 22 21 21 21 21 20 20 21 21 22 22 22 22 22 21 20 19 18 16 16 16 17 18 20 20 19 15 12 9 7 7 9 10 11 10 9 7 5 2
16 15 15 15 14 13 13 13 12 12 11 11 11 12 14 15 17 18 18 18 18 18 17 16 15 14 14 14 13 14 19 23 28 31 33 34 37 39 40 38 35 31 27 24 23 22 21 21 21 20 19 19 19 19 20 21 21 21 21 21 21 20 19 18 17 16 17 17 18 19 20 19 16 12 9 8 7 8 9 11 10 9 8 5 2 2
15 15 14 14 14 13 13 12 12 12 12 12 12 12 13 15 17 18 19 19 19 19 18 17 16 15 14 12 12 15 20 25 29 31 33 35 37 38 37 34 29 25 23 22 22 22 23 22 21 20 18 18 18 19 20 20 20 20 20 20 19 19 18 17 17 17 18 18 19 20 19 16 13 10 8 7 7 8 10 10 10 8 6 3 2 4
14 14 14 13 13 13 12 12 12 12 12 12 12 12 12 13 15 16 18 19 20 20 20 20 18 16 13 10 11 14 19 25 29 31 33 33 33 32 29 25 21 20 20 21 23 24 24 24 22 20 19 18 18 19 19 20 20 19 19 18 18 18 17 17 17 18 19 19 20 19 17 13 10 9 7 6 8 9 10 10 9 7 4 2 3 5
14 14 13 13 13 12 12 12 11 11 11 12 12 12 12 12 13 14 16 18 19 20 21 21 20 17 14 11 11 14 19 25 29 30 30 29 27 23 19 16 16 17 18 20 22 24 25 25 24 22 20 19 18 19 19 19 19 18 17 17 17 17 17 17 18 19 19 20 19 17 14 11 9 8 6 7 8 10 10 9 7 5 3 2 4 5
15 14 14 13 13 13 12 12 11 11 11 11 12 12 12 12 12 13 14 16 17 19 20 21 21 19 16 14 12 14 19 25 28 29 27 24 20 17 14 14 16 17 18 20 22 24 26 26 25 24 22 20 20 20 20 19 18 17 17 17 17 17 17 18 18 19 19 19 18 15 12 10 9 7 6 8 9 10 9 8 6 4 2 3 5 6
15 15 15 14 14 13 13 12 12 12 12 12 12 12 13 13 13 13 13 14 15 16 18 20 21 21 19 17 15 14 18 24 28 28 26 23 21 20 19 19 20 20 20 20 21 23 26 27 27 26 24 22 21 21 21 20 19 17 17 16 16 16 17 17 18 18 18 17 15 12 11 10 8 7 7 9 10 9 8 7 5 2 2 4 6 6
16 16 16 15 15 15 14 14 13 13 12 12 13 13 13 13 14 13 13 13 13 14 16 18 21 22 22 21 19 18 18 24 29 31 30 29 28 27 26 26 25 24 22 22 22 23 26 28 28 28 26 25 24 23 22 21 19 18 17 16 16 16 16 17 17 17 17 15 13 11 10 9 7 7 8 9 10 9 7 5 3 2 3 5 6 7
16 16 16 16 16 16 15 15 15 14 14 13 13 13 13 14 14 14 14 13 13 13 14 16 19 21 23 23 23 23 23 26 31 35 36 36 35 33 32 31 30 28 26 24 23 24 25 28 29 29 29 28 27 25 24 22 20 18 17 16 15 15 16 16 16 16 15 13 12 11 10 8 7 7 9 9 9 8 6 4 2 2 5 6 7 7
17 17 16 17 17 17 17 16 16 16 15 14 14 14 13 14 14 14 14 14 14 14 14 15 17 20 23 24 25 26 28 30 33 36 38 38 38 37 35 34 32 30 28 26 24 24 25 27 29 30 31 30 29 27 25 23 20 18 16 15 15 15 15 15 15 14 13 12 11 11 9 8 7 8 9 9 8 6 4 3 2 4 6 7 7 7
19 18 18 17 17 17 17 17 17 17 17 16 15 14 14 14 14 14 14 14 14 14 14 15 16 19 21 24 26 28 30 32 34 35 37 37 37 37 36 35 33 32 30 27 25 24 24 26 28 30 31 31 30 28 25 23 20 18 17 16 15 15 15 15 14 13 12 12 12 10 9 8 8 9 9 8 7 5 3 2 3 5 7 8 8 7
20 20 19 19 18 18 18 18 18 18 18 18 17 15 15 14 14 14 14 14 14 14 14 15 16 18 20 22 25 27 30 32 34 35 36 36 37 36 36 35 34 33 31 28 26 24 24 25 27 29 30 30 29 27 25 23 20 18 17 16 15 15 15 14 13 12 12 12 11 10 9 9 9 10 9 7 5 3 3 3 5 6 8 8 8 7
21 21 21 21 20 19 19 19 19 19 19 19 18 17 16 15 14 13 13 13 13 13 14 15 16 17 19 21 23 25 28 30 32 34 35 36 36 35 35 35 35 34 32 28 25 23 23 24 26 27 28 29 27 25 23 22 20 18 17 16 15 15 14 13 13 13 13 13 11 10 9 10 10 9 8 6 4 3 3 5 6 8 8 8 8 7
22 22 22 22 21 21 20 20 20 20 20 20 19 19 18 16 15 14 13 13 13 13 14 14 15 16 18 20 22 24 26 27 29 31 32 33 33 34 34 34 34 33 32 28 25 23 23 23 24 25 26 26 26 24 22 21 19 18 17 16 15 14 13 13 13 14 14 13 11 10 10 10 10 9 7 5 4 4 5 6 7 8 9 8 7 7
23 23 23 23 23 22 22 22 21 21 20 20 20 19 19 18 17 15 14 14 13 13 13 14 15 16 17 19 20 22 24 25 26 28 29 29 30 31 31 32 33 32 31 28 25 23 23 23 23 24 24 24 24 23 22 20 19 17 16 15 14 13 13 14 15 15 14 12 11 10 11 10 9 8 6 4 4 5 7 8 8 9 8 7 7 6
24 24 24 24 24 24 23 23 22 22 21 21 21 20 20 19 18 17 16 15 14 13 13 13 14 15 16 18 19 21 22 24 25 26 26 27 28 28 29 30 31 31 30 27 25 24 23 23 23 23 23 23 22 21 20 19 18 17 16 14 13 13 14 15 16 15 14 12 11 11 11 10 9 7 5 5 6 7 8 9 9 9 8 7 6 6
25 25 25 25 25 25 25 24 23 23 22 22 22 22 21 21 19 18 17 16 15 14 13 13 14 14 16 17 18 20 21 23 24 25 26 26 27 27 28 28 29 29 29 27 26 25 24 24 24 24 23 23 22 20 19 18 17 16 14 13 14 14 15 16 16 15 14 12 12 11 11 9 8 6 5 6 7 9 9 10 9 9 8 7 7 7
26 26 26 26 26 26 25 25 24 24 23 23 23 23 23 22 21 19 17 16 15 14 14 13 13 14 15 16 17 19 20 22 23 25 26 26 26 27 27 27 28 29 29 28 27 26 25 25 25 24 23 22 21 19 18 17 16 15 14 14 15 16 17 17 16 15 13 12 12 11 10 9 7 6 6 7 9 10 11 10 10 9 8 7 7 7
27 27 27 27 27 27 26 26 25 24 24 24 24 24 24 23 22 20 19 17 16 15 14 13 13 13 14 15 16 18 19 21 23 24 25 26 26 26 27 27 28 28 29 28 28 27 26 26 25 24 23 21 20 18 17 16 15 14 14 15 16 17 18 17 16 15 13 13 12 11 10 9 7 7 7 8 10 11 11 11 10 9 8 8 8 8
27 28 28 28 28 27 27 26 26 25 24 24 24 24 24 23 22 21 19 18 17 15 14 14 13 13 14 15 16 17 18 20 22 23 24 25 25 26 26 27 28 28 29 28 28 27 26 25 24 23 22 20 18 17 16 15 14 14 15 17 18 18 18 17 16 15 14 13 12 11 10 9 8 8 8 9 11 11 12 11 10 10 9 9 9 9
28 28 28 28 28 28 28 27 27 26 25 24 24 24 24 23 22 21 20 19 17 16 14 14 13 14 14 14 15 16 17 19 20 22 23 23 24 25 26 26 27 28 28 28 28 27 26 25 23 22 21 19 17 16 15 14 15 16 18 19 19 19 18 18 17 15 14 13 12 11 10 9 8 9 10 10 11 11 11 11 10 10 10 9 9 9
28 28 29 29 29 29 28 28 27 26 25 24 24 24 24 23 23 21 20 19 17 16 14 14 14 14 14 14 15 15 16 17 19 20 21 22 23 24 24 25 26 27 28 28 27 27 26 25 23 22 20 18 16 15 14 15 16 18 20 20 20 19 18 17 17 16 15 14 12 11 10 9 9 10 11 12 12 12 11 11 11 10 10 10 10 10
29 29 29 29 29 29 28 28 27 26 25 25 24 24 24 24 23 22 21 20 18 16 15 14 14 14 14 14 14 15 15 16 17 18 19 20 21 22 24 24 25 26 27 27 27 27 26 25 24 22 19 17 16 15 15 16 18 20 21 21 20 19 18 18 17 16 15 14 12 11 11 10 10 11 12 12 12 12 11 11 11 10 10 10 10 10
29 29 29 29 29 29 28 28 27 27 26 25 25 24 24 24 23 22 21 20 19 17 15 14 14 14 14 14 14 14 14 15 15 16 16 18 20 21 23 24 24 25 26 26 26 26 26 25 23 22 19 17 16 16 16 18 20 22 22 22 20 20 19 18 17 16 15 14 13 12 11 11 12 13 13 13 12 11 11 11 11 10 10 10 10 9
29 29 29 29 29 28 28 28 27 27 26 25 25 25 24 24 24 23 22 21 19 17 16 15 15 15 14 14 14 13 14 14 15 15 15 16 17 19 21 22 23 24 25 26 26 26 25 24 22 20 19 17 17 17 19 21 22 23 22 22 21 20 20 19 17 16 15 14 13 12 12 12 12 13 13 13 12 11 11 11 11 11 11 10 10 10
30 29 29 29 28 28 28 27 27 27 26 26 25 25 25 24 24 23 22 21 20 18 17 16 16 15 15 14 13 13 13 13 14 14 14 14 16 17 19 20 22 23 24 25 25 25 24 23 22 20 18 17 17 19 21 23 24 23 23 22 21 21 20 19 17 16 15 14 14 13 13 13 13 13 13 13 12 12 12 12 12 12 11 11 11 10
30 30 29 29 28 28 27 27 27 26 26 26 25 25 25 24 24 23 22 21 20 19 18 17 17 16 15 14 13 13 13 13 14 14 14 14 14 16 17 18 20 21 22 24 24 24 24 22 21 20 19 18 18 20 22 24 24 24 23 22 22 21 20 19 18 16 15 15 14 14 14 14 14 14 14 13 12 12 12 12 12 12 12 12 11 11
Wind_Direction
169 172 174 176 178 180 182 182 182 185 193 197 196 194 194 193 190 187 190 196 203 209 213 216 220 223 222 218 213 211 210 210 212 212 209 202 197 195 195 195 195 196 198 199 200 202 203 202 201 202 205 209 212 214 217 221 225 228 230 230 231 232 236 242 246 246 244 244 247 255 265 275 283 288 291 294 297 298 301 305 309 312 315 315 316 317
178 177 176 178 180 180 179 181 181 183 187 188 189 193 197 199 195 190 187 191 199 207 213 217 220 221 217 211 208 208 209 212 214 213 207 200 196 196 197 198 199 202 204 204 202 202 205 205 203 203 207 211 213 215 218 223 227 230 232 233 235 238 243 247 249 247 245 245 248 256 266 274 280 284 289 292 294 297 300 305 309 312 314 314 316 318
183 181 180 180 181 181 179 179 181 183 187 188 186 188 192 196 197 196 195 196 200 204 209 214 218 217 211 206 205 207 211 213 212 207 200 196 197 200 203 205 209 214 220 220 213 207 207 206 204 204 208 212 215 217 220 225 229 231 233 236 238 243 248 250 248 247 246 247 251 258 266 271 274 279 285 289 292 296 300 305 309 312 313 314 316 318
177 182 185 184 184 183 181 181 183 189 195 197 195 192 191 194 197 200 203 207 209 208 206 207 210 210 205 200 200 203 208 209 205 199 194 194 199 204 210 215 221 227 231 229 221 213 210 208 206 206 210 213 217 220 223 227 231 233 236 238 241 246 249 249 247 246 248 251 255 261 265 266 268 274 281 287 291 296 301 306 310 311 312 314 316 319
167 179 188 193 196 196 193 194 198 204 208 208 206 205 204 203 203 205 210 216 219 216 210 205 204 204 203 200 198 198 200 200 198 196 196 200 204 210 216 223 229 233 233 228 220 213 211 209 208 209 211 215 219 223 227 229 232 235 238 240 244 248 250 248 246 247 250 254 259 262 261 260 263 271 280 286 291 297 303 307 310 311 312 314 317 319
172 187 198 203 206 207 208 212 217 221 224 222 218 217 218 218 216 216 220 224 225 222 217 211 208 206 205 203 201 199 195 194 196 201 208 211 214 217 220 224 228 229 227 221 215 211 209 208 209 210 213 218 222 226 228 230 233 236 239 241 246 250 251 248 247 248 251 256 260 261 257 256 262 271 280 286 292 298 304 308 310 310 312 314 317 320
274 306 321 304 226 211 213 220 228 233 235 233 229 226 227 226 224 222 222 222 222 222 221 221 218 215 212 210 208 205 201 199 202 209 217 220 220 219 219 220 220 219 218 215 212 210 208 208 209 212 216 221 225 227 229 231 234 237 240 243 249 254 253 249 248 249 253 257 260 260 258 258 265 274 282 287 294 300 306 309 310 310 312 315 318 320
289 309 325 321 273 221 211 221 233 240 241 236 231 227 223 221 216 211 206 206 209 215 222 228 227 222 216 214 213 211 209 208 210 213 218 222 221 217 213 214 214 213 214 213 212 210 209 209 210 214 218 222 225 227 229 232 235 239 242 248 255 259 257 251 248 249 253 257 260 262 262 264 270 278 284 289 296 303 307 308 309 310 312 315 318 320
274 284 292 277 251 225 210 218 236 245 243 235 225 215 210 210 207 202 197 197 202 211 221 228 226 218 212 211 210 210 209 209 210 213 216 221 221 218 213 212 211 211 213 213 212 211 210 210 212 215 219 222 225 227 230 234 238 243 249 256 262 264 259 252 248 249 252 257 262 266 267 269 274 279 285 290 298 304 307 307 308 310 313 316 319 320
254 257 258 254 248 237 218 216 231 243 241 229 217 209 209 213 216 215 211 209 210 215 221 221 216 208 204 204 203 202 201 203 207 213 218 222 222 219 217 215 212 210 212 212 212 210 210 210 212 215 218 221 225 228 233 239 244 250 256 262 265 264 258 252 248 249 253 259 266 271 273 274 276 280 284 290 299 304 305 305 307 310 314 317 319 320
262 251 249 250 251 249 237 216 210 219 225 219 215 216 221 225 232 240 243 235 225 220 217 211 205 201 203 205 204 200 198 201 208 215 219 220 219 218 219 220 216 212 211 212 211 209 209 210 213 215 219 223 227 233 240 246 251 256 259 263 263 261 256 251 250 252 257 264 271 276 278 277 277 278 281 289 297 301 302 304 307 311 315 317 318 319
305 282 260 253 252 249 241 225 211 205 207 210 214 220 228 234 241 249 257 258 246 229 216 208 203 204 210 214 213 207 202 204 210 214 215 215 213 213 215 219 218 215 213 213 212 211 211 213 215 219 224 229 235 241 247 252 254 256 258 259 258 256 253 251 252 256 262 269 276 280 281 279 277 276 280 289 296 299 300 304 308 312 315 317 317 318
311 303 289 272 259 251 245 235 225 216 212 211 212 216 223 233 242 250 255 260 257 247 233 220 215 215 218 221 221 217 210 207 210 213 215 214 213 212 214 218 220 218 217 216 216 216 217 219 223 229 235 240 246 250 251 252 252 253 254 254 254 253 252 252 255 260 266 273 278 281 280 278 275 276 282 292 296 297 300 305 309 313 314 315 316 316
298 296 293 287 276 263 253 244 237 231 225 222 219 217 218 225 234 243 250 254 255 253 249 241 234 230 228 226 225 223 219 215 214 215 217 218 218 219 220 224 225 225 223 222 222 223 225 229 234 240 245 250 253 252 250 249 248 248 250 251 252 253 253 255 259 264 270 275 278 279 277 274 273 276 287 293 295 297 302 307 310 312 313 314 314 314
280 277 277 278 277 273 266 257 249 242 237 233 230 226 223 223 227 232 238 243 247 249 250 248 247 244 239 233 229 227 225 224 222 222 223 224 224 225 226 229 231 233 232 231 230 230 232 236 240 244 248 251 251 248 246 244 244 246 249 251 253 254 256 259 263 268 272 275 276 274 272 269 272 280 289 291 294 298 304 307 309 311 312 312 312 311
278 267 260 260 261 263 264 264 260 254 247 242 237 234 231 229 229 229 228 230 234 239 245 247 247 247 245 240 235 231 230 230 230 231 230 229 228 227 228 229 232 234 236 236 236 236 237 239 241 243 244 244 243 242 241 241 243 246 249 251 254 256 259 262 266 270 272 273 271 268 265 265 273 282 286 289 295 300 304 306 308 308 310 310 309 310
313 283 265 256 250 250 253 257 260 259 256 251 246 241 237 235 234 233 230 227 225 227 234 242 246 247 246 243 239 236 234 233 234 234 233 231 230 229 229 229 231 233 235 237 237 238 238 238 238 237 237 236 235 236 237 240 243 246 249 251 254 258 261 264 267 269 269 268 264 259 258 264 274 280 284 290 296 301 304 304 306 307 307 307 307 309
349 328 298 274 259 252 249 249 252 256 257 256 253 250 246 243 240 238 236 232 227 224 224 228 235 245 251 249 245 241 238 236 236 235 233 231 230 231 232 233 234 236 237 238 238 237 235 233 231 229 229 230 231 233 235 238 242 245 249 253 256 259 261 263 265 266 265 261 255 253 256 265 273 278 284 292 298 301 301 302 303 304 304 304 306 309
1 353 338 314 288 270 259 254 253 253 254 254 252 251 249 248 245 242 239 236 232 228 224 222 223 231 246 254 252 247 243 241 239 238 235 234 233 234 237 239 240 240 240 238 235 232 228 226 224 224 225 227 229 232 235 239 243 248 252 255 257 258 258 260 261 262 259 253 249 250 258 265 272 278 287 295 298 298 298 298 300 301 301 302 306 310
5 0 355 345 330 308 289 274 266 261 257 254 251 247 243 244 244 243 241 239 236 233 230 227 224 224 230 243 250 250 247 246 245 244 242 239 238 239 242 243 242 240 236 232 228 225 222 221 222 223 225 226 229 233 237 243 248 253 255 256 255 254 255 257 259 259 255 250 249 253 260 266 273 282 291 295 296 294 293 295 297 298 299 302 306 312
7 4 1 356 349 339 324 306 292 278 266 257 250 243 238 236 236 236 237 236 234 233 232 231 229 227 226 234 244 249 249 250 250 250 249 247 245 243 242 239 235 230 224 222 220 219 219 220 221 223 224 227 231 237 244 250 253 255 254 252 251 251 253 257 259 259 255 251 251 255 261 267 276 285 292 293 290 287 288 292 294 296 298 302 309 313
7 5 3 0 356 350 341 329 309 289 276 266 256 245 236 232 228 228 229 228 227 226 227 228 230 232 232 237 245 251 253 254 255 256 256 254 248 242 236 229 221 215 213 213 215 216 217 218 220 223 226 232 239 246 251 253 253 251 249 247 248 250 255 259 261 260 256 252 253 257 262 270 279 287 290 286 282 280 285 290 292 294 298 305 311 313
6 4 3 1 358 354 349 340 320 297 284 279 274 266 253 241 232 226 225 222 220 219 220 223 227 232 237 244 250 253 254 256 259 262 260 253 243 234 227 219 212 209 209 210 213 214 216 218 222 227 234 242 249 253 253 251 247 244 244 245 248 253 258 262 264 262 257 254 255 258 265 274 282 285 284 278 272 275 283 288 290 293 299 307 312 310
5 3 2 -0 358 355 351 345 334 316 298 289 284 280 273 261 249 237 229 223 219 217 215 215 219 227 234 241 248 252 254 258 264 264 258 245 233 224 219 215 212 210 210 211 213 215 219 224 231 240 248 253 254 253 249 244 241 240 242 247 252 258 263 266 266 263 258 256 257 262 269 277 282 282 276 267 265 273 282 285 288 293 301 309 311 299
3 2 0 358 356 353 350 347 340 330 316 303 293 288 284 278 269 258 246 235 225 218 213 212 216 224 231 234 243 253 259 264 265 259 248 235 225 220 218 216 213 211 211 214 217 222 230 239 248 255 258 257 253 248 242 238 237 239 244 251 258 264 267 267 265 261 258 258 261 266 273 279 280 275 264 257 261 273 280 283 287 294 304 310 305 269
359 359 358 356 354 351 348 345 341 336 327 316 304 295 290 287 283 276 265 250 236 226 220 217 218 222 227 231 243 258 264 264 258 249 237 229 223 220 219 217 214 213 216 222 230 239 248 255 259 261 259 254 247 241 236 234 235 239 246 254 262 266 267 265 262 259 258 260 264 270 275 277 274 264 253 252 262 273 278 282 287 296 306 309 285 218
354 354 354 353 351 349 346 342 339 335 330 323 313 303 294 289 287 285 277 264 251 239 229 223 220 220 223 228 244 259 262 256 247 238 231 226 222 219 219 220 221 225 233 242 249 254 257 259 260 258 255 249 241 235 232 231 234 240 248 256 262 265 263 260 257 256 258 261 267 272 275 272 262 250 246 254 266 273 276 281 289 299 308 301 226 191
347 348 349 348 347 345 342 339 336 332 328 324 318 310 302 293 287 283 278 272 263 252 239 230 224 220 219 226 242 254 255 245 236 229 226 221 218 217 222 229 239 249 256 258 258 257 256 255 254 253 250 244 237 231 229 229 233 240 248 255 259 260 258 255 255 255 258 263 268 272 271 261 248 242 246 257 267 272 276 282 291 301 307 270 188 183
338 340 341 342 342 341 338 335 332 327 324 321 317 312 306 298 288 281 278 276 272 263 251 239 230 222 217 222 233 242 243 234 227 222 219 214 212 216 228 246 260 264 261 258 256 253 251 249 248 246 244 240 234 229 227 228 232 239 248 253 256 255 253 252 253 255 259 264 269 269 261 247 238 239 249 260 266 271 276 283 293 302 300 208 180 182
329 331 332 334 335 335 334 331 328 324 320 316 313 310 307 302 294 285 279 276 273 269 261 250 238 227 218 214 220 229 230 222 218 216 214 213 217 228 245 262 267 262 253 250 250 249 247 244 242 241 240 236 232 228 226 227 232 240 248 252 253 252 250 249 251 254 260 265 266 261 247 236 233 239 251 260 265 270 276 284 294 300 270 188 179 182
323 324 325 326 327 328 328 327 325 322 318 314 310 308 305 303 299 293 285 278 272 268 265 257 247 236 224 211 208 216 221 217 216 217 219 225 234 244 253 259 260 255 248 244 245 247 244 242 240 239 237 235 231 228 227 228 233 241 248 250 249 247 245 246 250 255 261 263 260 249 234 230 230 239 251 259 264 270 277 286 294 289 214 185 181 185
319 318 319 319 320 322 322 323 322 321 318 314 310 307 304 302 300 297 292 285 276 269 265 260 254 245 235 220 209 208 217 222 225 227 231 236 241 245 249 252 252 250 244 239 238 240 241 241 240 239 238 236 233 231 229 230 234 241 245 246 243 240 241 245 250 256 260 258 248 234 226 225 228 239 250 258 263 270 277 286 290 250 192 184 184 187
318 316 315 315 315 316 317 318 318 318 316 314 310 307 305 302 300 298 296 292 284 275 267 261 257 252 245 235 222 214 215 223 229 232 235 238 241 243 245 246 247 245 239 234 232 233 235 237 239 240 240 239 237 234 232 233 236 239 241 238 236 237 241 247 253 257 256 246 232 222 220 221 228 239 249 256 262 269 276 283 269 207 187 185 185 189
318 316 314 313 312 312 312 313 314 314 313 311 309 306 304 301 298 297 295 293 289 282 273 265 259 255 251 245 237 229 224 224 227 230 233 236 238 239 240 241 241 239 234 230 227 227 229 232 235 237 239 240 239 237 236 235 236 236 235 233 234 238 245 251 255 254 245 230 220 216 216 218 228 239 248 254 260 267 273 270 228 194 186 185 186 188
316 315 314 312 311 310 309 309 310 310 310 308 305 303 300 298 296 294 292 290 288 284 278 271 264 258 254 251 246 241 237 234 232 232 233 235 236 236 236 236 235 233 229 225 223 222 224 227 231 234 237 238 238 238 237 235 234 233 232 233 237 244 250 254 252 243 228 217 212 212 212 218 228 238 246 252 258 262 261 236 202 191 187 186 187 187
313 313 313 311 310 309 307 307 307 307 306 305 302 299 297 295 292 290 288 286 285 283 280 275 269 263 257 254 250 248 245 242 240 239 237 237 235 234 233 232 231 228 225 222 219 219 221 224 228 231 234 235 235 235 234 233 232 232 233 237 243 249 253 251 242 227 214 209 208 208 210 219 229 237 243 248 251 249 230 208 195 190 188 187 187 186
308 309 309 309 308 307 306 304 304 304 304 302 299 296 294 292 289 286 283 281 281 280 280 277 273 268 262 257 253 250 248 246 245 243 241 238 236 233 231 229 228 226 223 219 217 216 218 222 226 229 231 232 232 231 230 229 230 231 236 241 247 251 250 242 227 212 205 205 204 205 211 221 229 235 239 241 237 222 204 196 192 190 188 186 184 183
302 303 304 305 304 304 303 302 301 301 301 299 296 293 291 289 286 283 278 276 276 278 279 278 275 271 266 261 256 252 250 248 246 244 241 238 235 231 229 228 227 225 222 217 214 213 216 221 224 227 228 228 227 226 225 226 228 232 239 244 248 248 241 226 212 203 202 201 201 204 212 221 227 232 233 228 215 198 192 192 192 189 187 184 181 178
297 298 299 300 300 300 299 299 299 298 298 296 294 291 289 287 284 280 274 271 271 274 276 278 277 274 270 264 259 254 250 247 245 242 239 235 232 229 227 226 225 224 221 216 211 210 212 217 220 222 223 222 221 222 223 225 229 235 241 245 246 240 227 212 203 200 199 197 198 204 214 221 225 227 222 210 194 187 188 190 190 189 186 182 178 176
294 294 295 295 296 296 296 296 296 295 295 294 292 290 287 284 281 277 273 269 268 269 273 276 277 276 273 268 261 255 249 245 242 238 235 231 228 225 224 224 223 222 218 213 209 207 208 212 214 215 215 215 216 218 222 227 232 238 243 242 235 224 213 203 199 197 195 192 196 205 214 220 222 220 209 192 182 181 185 188 189 187 184 180 176 172
292 292 292 292 292 292 293 293 293 293 292 291 290 288 285 281 276 272 270 267 267 267 271 275 277 278 275 270 264 256 249 243 239 235 231 228 225 223 222 222 221 219 215 209 206 205 206 208 209 209 210 211 214 218 223 229 235 239 240 233 220 209 202 199 197 195 190 189 195 205 214 217 217 210 196 181 177 179 183 186 188 186 183 178 174 170
290 290 290 290 290 290 290 291 290 290 290 289 288 286 284 280 274 268 264 261 262 265 270 275 279 279 277 273 266 258 250 243 237 233 230 227 224 222 221 220 219 216 212 206 203 203 205 206 207 208 209 212 216 221 227 232 236 237 231 218 207 200 197 196 195 191 185 188 197 206 212 213 209 199 186 177 175 177 181 183 185 184 181 178 175 172
289 289 288 288 288 288 288 288 288 288 287 287 286 285 283 280 275 268 261 256 255 259 266 273 278 280 279 275 268 261 252 244 238 233 230 227 225 222 220 219 218 215 211 206 203 203 205 206 207 209 211 215 220 225 229 232 233 229 217 205 197 194 195 194 190 186 184 189 198 205 209 207 201 190 180 175 174 175 177 179 181 182 180 178 175 172
288 288 287 287 287 287 286 286 286 285 284 284 284 283 282 279 274 268 260 254 252 255 262 269 276 279 279 276 271 263 254 246 239 234 230 228 225 222 220 218 217 215 212 207 203 203 205 207 209 211 215 219 224 227 230 230 225 215 204 197 194 193 194 190 186 182 184 191 198 203 204 201 193 183 176 173 172 173 174 175 177 178 179 178 173 170
288 287 286 286 285 285 285 285 284 283 282 282 282 281 279 276 273 267 259 252 249 251 257 265 273 277 279 277 272 265 257 248 240 234 230 228 225 222 220 217 216 214 211 208 205 204 205 207 210 214 218 222 226 229 229 225 216 205 196 193 192 193 191 187 182 182 187 193 198 200 198 194 187 179 174 171 170 170 171 171 171 172 173 172 169 167
287 286 285 285 284 284 283 283 282 281 281 280 279 277 275 273 269 264 258 251 246 246 252 261 269 274 277 276 273 267 259 250 242 235 230 227 224 222 219 217 215 213 211 208 206 205 206 208 211 215 219 222 226 227 225 218 207 198 192 192 192 191 187 182 181 183 188 193 195 195 192 188 182 175 171 169 168 168 167 166 165 165 166 165 164 164
287 286 285 284 283 282 281 281 280 279 278 277 276 275 272 269 266 262 257 250 244 242 247 256 265 270 274 275 273 267 259 251 243 236 229 225 222 220 218 215 214 212 210 208 207 206 207 208 211 214 218 221 222 222 218 210 201 195 192 192 191 187 181 179 181 185 189 191 191 190 187 183 176 172 169 167 166 165 162 161 161 161 162 161 162 163
286 285 284 282 281 280 280 279 278 277 276 275 274 272 269 266 263 259 254 248 242 239 243 253 261 267 271 272 271 267 259 250 241 233 226 221 219 218 216 214 212 210 209 208 207 206 207 209 211 214 217 219 219 217 211 204 197 193 192 191 187 182 177 178 182 186 188 189 188 186 182 177 172 169 167 165 163 160 157 156 157 158 159 160 161 163
286 284 282 281 280 279 278 277 276 275 273 272 271 270 267 264 261 257 252 246 239 236 241 250 258 264 267 270 270 266 258 248 239 230 222 217 216 215 214 213 211 209 208 207 206 206 207 209 212 215 218 220 218 214 207 200 195 193 191 188 182 177 175 179 183 186 187 186 184 182 178 174 170 168 165 162 159 156 152 152 155 158 159 159 161 165
285 283 281 280 278 277 276 275 274 273 271 270 269 267 265 263 260 256 252 245 238 236 240 249 256 261 264 267 267 263 257 247 237 228 220 214 211 211 211 211 210 208 207 206 206 206 207 209 212 216 220 221 218 212 204 198 194 192 190 184 178 175 177 181 184 185 185 183 181 178 174 171 168 166 164 160 156 152 150 151 155 159 161 161 163 167
283 281 280 278 277 275 274 273 272 271 269 268 267 265 264 261 257 254 250 244 237 235 240 248 254 258 262 264 263 260 254 245 236 227 220 213 209 207 207 208 208 207 207 207 207 208 209 211 214 217 219 219 216 209 202 197 194 191 186 179 175 175 178 181 183 183 182 180 177 174 171 168 166 164 162 158 153 150 150 153 157 161 163 164 166 169
Height
2981 2982 2983 2984 2985 2986 2986 2987 2988 2989 2990 2991 2992 2993 2994 2996 2996 2997 2998 2999 3000 3001 3002 3003 3004 3005 3006 3007 3009 3011 3013 3014 3015 3017 3018 3022 3024 3024 3024 3025 3027 3029 3031 3032 3034 3036 3038 3040 3041 3043 3045 3045 3045 3046 3047 3048 3050 3051 3051 3052 3053 3054 3054 3055 3056 3056 3056 3057 3057 3057 3057 3057 3057 3057 3057 3057 3057 3057 3057 3057 3056 3056 3055 3054 3053 3052
2981 2982 2983 2984 2985 2986 2986 2987 2988 2989 2990 2991 2992 2993 2994 2995 2996 2997 2998 2999 3000 3001 3002 3002 3004 3005 3007 3008 3009 3011 3012 3013 3014 3016 3019 3021 3022 3022 3022 3024 3026 3027 3028 3030 3032 3035 3038 3040 3041 3042 3043 3043 3044 3045 3046 3047 3048 3049 3050 3051 3051 3052 3053 3053 3054 3055 3055 3055 3055 3056 3056 3056 3056 3056 3056 3056 3056 3056 3056 3056 3055 3054 3054 3053 3052 3051
2982 2983 2984 2985 2985 2986 2987 2988 2989 2989 2990 2991 2992 2993 2994 2995 2996 2997 2999 3000 3001 3001 3002 3003 3004 3006 3008 3009 3010 3011 3012 3013 3014 3016 3018 3020 3021 3021 3022 3024 3025 3026 3027 3029 3031 3034 3037 3039 3041 3041 3041 3041 3042 3044 3045 3046 3047 3047 3048 3049 3050 3051 3051 3052 3053 3053 3053 3054 3054 3054 3054 3054 3054 3054 3054 3054 3054 3055 3054 3054 3054 3053 3052 3051 3051 3049
2983 2984 2984 2985 2986 2986 2987 2988 2989 2990 2991 2991 2992 2993 2994 2995 2996 2997 2998 2999 3000 3001 3002 3003 3005 3006 3008 3009 3010 3011 3013 3014 3015 3016 3018 3019 3020 3021 3022 3023 3024 3026 3027 3028 3030 3033 3036 3038 3039 3040 3040 3040 3041 3043 3044 3045 3046 3046 3047 3047 3048 3049 3050 3051 3051 3051 3052 3052 3052 3052 3053 3053 3052 3052 3052 3053 3053 3053 3053 3053 3052 3051 3051 3050 3049 3048
2983 2984 2985 2986 2986 2987 2987 2988 2989 2990 2991 2991 2992 2993 2994 2995 2996 2997 2998 2999 2999 3000 3001 3003 3004 3006 3007 3008 3009 3011 3013 3015 3016 3016 3017 3018 3019 3020 3021 3023 3024 3025 3026 3028 3030 3033 3035 3036 3037 3037 3038 3039 3041 3042 3043 3044 3045 3045 3046 3046 3046 3047 3048 3049 3049 3050 3050 3051 3051 3051 3051 3051 3051 3051 3051 3051 3051 3052 3052 3051 3051 3050 3049 3048 3047 3046
2984 2984 2985 2985 2986 2986 2987 2988 2989 2990 2990 2991 2991 2992 2993 2994 2995 2996 2998 2999 2999 3000 3001 3002 3004 3005 3006 3006 3008 3010 3012 3014 3016 3016 3016 3017 3018 3020 3021 3022 3024 3026 3026 3028 3030 3032 3034 3035 3035 3036 3037 3039 3040 3041 3042 3043 3043 3043 3044 3044 3045 3046 3047 3047 3048 3048 3048 3049 3049 3049 3049 3049 3049 3049 3049 3050 3050 3051 3050 3050 3049 3049 3048 3047 3046 3044
2984 2984 2985 2985 2985 2986 2987 2988 2988 2989 2990 2990 2991 2992 2993 2994 2995 2996 2998 2999 2999 2999 3000 3001 3003 3004 3004 3005 3006 3008 3010 3012 3014 3015 3016 3017 3018 3019 3020 3022 3024 3026 3027 3028 3030 3031 3032 3033 3034 3036 3037 3039 3040 3041 3041 3041 3041 3041 3042 3043 3044 3045 3045 3046 3046 3046 3046 3047 3047 3047 3047 3047 3047 3047 3047 3048 3049 3049 3049 3048 3048 3047 3046 3045 3044 3042
2984 2984 2985 2985 2986 2986 2986 2987 2988 2989 2990 2991 2991 2992 2993 2994 2996 2997 2998 2999 2998 2999 3000 3001 3002 3003 3004 3005 3006 3007 3008 3010 3011 3013 3015 3017 3018 3019 3020 3022 3024 3025 3026 3027 3028 3030 3031 3032 3034 3036 3037 3038 3039 3039 3039 3039 3040 3040 3041 3041 3042 3043 3044 3044 3045 3045 3045 3045 3045 3046 3046 3045 3045 3045 3046 3047 3048 3048 3047 3047 3046 3045 3044 3043 3042 3041
2984 2985 2985 2986 2986 2986 2986 2987 2988 2989 2990 2990 2991 2991 2993 2994 2995 2996 2998 2998 2998 2999 3000 3000 3001 3002 3004 3005 3006 3006 3008 3009 3010 3012 3014 3016 3018 3018 3020 3021 3022 3024 3025 3026 3027 3029 3031 3032 3034 3035 3036 3036 3037 3037 3037 3038 3038 3039 3040 3040 3041 3042 3042 3043 3043 3043 3043 3043 3043 3043 3044 3044 3044 3044 3045 3046 3046 3046 3046 3045 3045 3044 3042 3041 3040 3039
2984 2985 2985 2986 2986 2986 2987 2987 2988 2989 2990 2991 2991 2991 2992 2994 2995 2996 2997 2997 2998 2999 3000 3001 3001 3003 3004 3005 3006 3007 3008 3009 3010 3011 3014 3016 3017 3017 3018 3019 3021 3023 3024 3026 3027 3029 3030 3032 3033 3033 3034 3034 3035 3035 3036 3036 3037 3038 3038 3039 3040 3040 3041 3041 3041 3041 3041 3041 3041 3041 3042 3042 3042 3043 3044 3045 3045 3045 3045 3044 3043 3042 3041 3040 3039 3038
2984 2984 2985 2986 2986 2986 2987 2987 2988 2990 2991 2992 2992 2992 2993 2994 2995 2996 2996 2997 2998 2999 3000 3001 3002 3003 3004 3005 3006 3007 3008 3009 3011 3012 3014 3016 3017 3017 3018 3018 3020 3022 3024 3025 3026 3027 3029 3030 3030 3031 3032 3032 3033 3034 3035 3035 3036 3036 3037 3038 3038 3039 3039 3039 3040 3040 3040 3040 3040 3041 3041 3041 3041 3042 3043 3043 3044 3043 3043 3042 3041 3040 3039 3038 3037 3036
2983 2984 2985 2985 2986 2987 2987 2988 2989 2990 2991 2993 2994 2994 2994 2994 2995 2996 2996 2997 2998 2999 3000 3001 3002 3003 3004 3005 3006 3007 3008 3009 3011 3012 3014 3015 3016 3018 3019 3019 3019 3021 3023 3024 3025 3026 3027 3027 3028 3029 3030 3031 3032 3033 3034 3034 3035 3035 3036 3036 3036 3037 3037 3038 3038 3038 3039 3039 3039 3040 3040 3040 3041 3041 3041 3042 3042 3042 3041 3041 3040 3039 3038 3037 3036 3035
2983 2984 2984 2985 2986 2986 2987 2988 2989 2990 2991 2992 2994 2994 2995 2995 2995 2996 2996 2997 2998 2999 3000 3000 3001 3002 3004 3005 3006 3007 3008 3009 3011 3012 3013 3015 3016 3017 3018 3018 3019 3020 3021 3023 3024 3025 3025 3026 3027 3028 3029 3030 3031 3032 3032 3033 3033 3034 3034 3035 3035 3035 3036 3036 3037 3037 3038 3038 3038 3039 3039 3039 3040 3040 3040 3041 3041 3040 3040 3039 3038 3037 3036 3036 3035 3034
2983 2984 2984 2985 2985 2986 2987 2988 2989 2990 2991 2991 2993 2994 2994 2995 2996 2996 2997 2998 2998 2999 3000 3000 3001 3002 3003 3005 3006 3007 3008 3009 3010 3011 3013 3014 3015 3016 3017 3017 3018 3019 3020 3021 3023 3024 3024 3025 3026 3027 3028 3029 3030 3030 3031 3031 3032 3032 3032 3033 3033 3034 3034 3035 3036 3036 3037 3037 3037 3037 3038 3038 3038 3039 3039 3039 3039 3039 3038 3037 3036 3036 3035 3034 3034 3033
2984 2984 2984 2985 2985 2986 2987 2988 2989 2990 2990 2991 2992 2993 2994 2995 2996 2996 2997 2998 2998 2999 3000 3000 3001 3001 3002 3004 3005 3006 3007 3008 3009 3010 3011 3013 3014 3015 3016 3016 3017 3018 3020 3021 3022 3023 3024 3025 3025 3026 3027 3028 3028 3029 3029 3030 3030 3031 3031 3031 3032 3033 3033 3034 3035 3035 3036 3036 3036 3036 3036 3037 3037 3037 3038 3038 3038 3037 3036 3036 3035 3034 3034 3033 3032 3032
2984 2984 2984 2985 2985 2986 2986 2987 2988 2989 2990 2991 2991 2992 2993 2994 2994 2995 2996 2997 2998 2999 3000 3000 3001 3002 3002 3003 3004 3005 3006 3007 3008 3009 3010 3011 3013 3014 3015 3016 3016 3017 3018 3019 3021 3022 3023 3024 3025 3025 3026 3026 3027 3027 3028 3028 3028 3029 3030 3031 3031 3032 3032 3033 3033 3034 3034 3035 3035 3035 3035 3036 3036 3036 3036 3036 3036 3036 3035 3034 3034 3033 3032 3032 3031 3031
2984 2984 2984 2985 2985 2986 2986 2986 2987 2988 2989 2990 2991 2991 2992 2993 2994 2994 2995 2996 2996 2998 2999 2999 3000 3001 3002 3003 3004 3004 3006 3006 3007 3008 3009 3010 3011 3012 3013 3014 3015 3016 3017 3019 3020 3021 3021 3022 3023 3024 3024 3025 3025 3026 3026 3026 3027 3028 3029 3030 3030 3031 3031 3032 3032 3033 3033 3033 3034 3034 3034 3034 3035 3035 3035 3035 3035 3034 3034 3033 3032 3032 3031 3031 3031 3030
2985 2985 2985 2985 2985 2985 2986 2986 2987 2987 2988 2988 2989 2990 2991 2992 2993 2993 2994 2995 2995 2996 2997 2998 2999 3000 3001 3002 3003 3003 3005 3006 3006 3007 3008 3009 3010 3011 3012 3013 3014 3015 3016 3017 3018 3019 3020 3021 3021 3021 3022 3022 3023 3023 3024 3025 3026 3027 3028 3029 3029 3030 3030 3031 3031 3031 3032 3032 3032 3032 3033 3033 3034 3034 3034 3034 3033 3033 3032 3031 3031 3031 3030 3030 3030 3029
2985 2985 2985 2985 2985 2985 2985 2986 2986 2987 2987 2988 2988 2989 2990 2991 2991 2992 2993 2994 2995 2995 2996 2996 2997 2998 3000 3001 3002 3003 3004 3005 3006 3006 3007 3008 3009 3010 3011 3012 3013 3014 3015 3016 3017 3017 3018 3018 3019 3019 3020 3020 3021 3022 3023 3024 3025 3026 3027 3027 3028 3028 3029 3029 3030 3030 3031 3031 3031 3031 3031 3032 3032 3033 3033 3032 3032 3031 3031 3030 3030 3030 3029 3029 3029 3028
2985 2985 2985 2985 2985 2985 2985 2985 2986 2986 2987 2987 2987 2988 2989 2989 2990 2991 2991 2992 2993 2994 2995 2995 2996 2997 2999 3000 3001 3002 3003 3005 3006 3006 3007 3008 3009 3009 3009 3010 3011 3012 3013 3014 3015 3015 3016 3016 3016 3017 3018 3019 3020 3021 3022 3023 3024 3025 3025 3026 3026 3026 3027 3028 3028 3029 3029 3029 3030 3030 3031 3031 3031 3031 3031 3031 3031 3030 3030 3029 3029 3028 3028 3028 3027 3027
2986 2985 2985 2985 2985 2984 2984 2985 2985 2986 2986 2987 2987 2987 2987 2988 2988 2989 2990 2991 2992 2993 2994 2995 2996 2997 2998 2999 3001 3002 3003 3004 3005 3006 3007 3008 3008 3008 3008 3008 3009 3010 3011 3011 3012 3012 3013 3013 3014 3015 3016 3018 3019 3021 3021 3022 3023 3023 3024 3024 3025 3025 3026 3026 3027 3028 3028 3028 3028 3029 3029 3030 3030 3030 3030 3030 3029 3029 3028 3028 3028 3027 3027 3027 3026 3026
2986 2986 2985 2985 2985 2985 2985 2985 2985 2986 2986 2987 2987 2987 2987 2987 2987 2988 2988 2989 2990 2991 2993 2994 2995 2996 2997 2998 3000 3001 3002 3003 3004 3004 3005 3006 3007 3007 3007 3007 3007 3008 3008 3008 3009 3009 3010 3011 3013 3014 3016 3017 3018 3019 3020 3021 3021 3022 3022 3022 3023 3024 3025 3025 3026 3026 3027 3027 3027 3028 3028 3028 3029 3029 3028 3028 3028 3027 3027 3027 3026 3026 3026 3026 3026 3025
2986 2986 2985 2985 2985 2985 2985 2985 2985 2986 2986 2986 2987 2987 2987 2986 2986 2986 2987 2988 2989 2990 2991 2992 2993 2995 2996 2997 2998 2999 3000 3001 3002 3003 3004 3004 3005 3006 3006 3005 3005 3005 3005 3005 3006 3007 3009 3011 3013 3014 3016 3016 3017 3018 3018 3019 3020 3020 3021 3021 3022 3022 3023 3024 3025 3025 3026 3026 3026 3026 3027 3027 3027 3027 3027 3026 3026 3026 3026 3026 3026 3026 3025 3025 3024 3024
2986 2986 2986 2986 2986 2985 2985 2985 2985 2985 2986 2986 2986 2986 2986 2987 2986 2986 2986 2987 2987 2988 2989 2990 2991 2992 2994 2995 2996 2997 2998 3000 3001 3001 3002 3002 3003 3004 3004 3003 3002 3003 3003 3005 3006 3008 3010 3011 3013 3014 3015 3015 3016 3016 3017 3017 3018 3019 3020 3020 3021 3021 3022 3023 3023 3024 3024 3025 3025 3025 3026 3026 3026 3026 3026 3025 3025 3025 3025 3025 3025 3024 3024 3024 3023 3023
2987 2986 2986 2986 2986 2986 2985 2985 2985 2985 2985 2985 2985 2986 2986 2986 2986 2986 2986 2986 2987 2987 2988 2989 2990 2991 2992 2993 2994 2995 2996 2998 2999 3000 3000 3000 3001 3001 3001 3001 3001 3002 3004 3006 3007 3009 3010 3011 3012 3013 3013 3014 3014 3015 3015 3016 3017 3018 3018 3019 3020 3021 3021 3021 3022 3022 3023 3024 3024 3024 3024 3024 3024 3024 3024 3024 3023 3023 3024 3024 3023 3023 3023 3023 3022 3022
2987 2986 2986 2986 2986 2986 2985 2985 2985 2985 2985 2985 2985 2985 2985 2986 2986 2986 2986 2986 2986 2987 2987 2988 2988 2989 2990 2991 2991 2993 2995 2996 2998 2998 2999 2998 2999 2999 3000 3000 3001 3003 3005 3006 3008 3009 3009 3010 3011 3011 3012 3012 3012 3013 3014 3015 3016 3016 3017 3018 3019 3020 3020 3021 3021 3022 3022 3022 3023 3023 3023 3023 3023 3023 3023 3022 3022 3022 3022 3022 3022 3022 3022 3022 3021 3021
2987 2987 2986 2986 2986 2986 2985 2985 2985 2985 2985 2985 2985 2985 2985 2985 2985 2985 2986 2986 2986 2986 2986 2986 2987 2987 2988 2988 2990 2991 2994 2995 2996 2997 2997 2997 2998 2999 3000 3001 3003 3004 3006 3006 3007 3007 3008 3009 3009 3010 3011 3011 3011 3012 3013 3014 3015 3016 3016 3017 3018 3019 3019 3020 3020 3021 3021 3021 3022 3022 3022 3022 3022 3022 3021 3021 3021 3021 3021 3021 3021 3021 3021 3021 3021 3021
2987 2987 2986 2986 2986 2986 2985 2985 2985 2985 2985 2985 2985 2985 2984 2984 2984 2985 2985 2985 2985 2986 2986 2986 2986 2986 2986 2987 2988 2990 2992 2994 2995 2995 2996 2997 2998 3000 3002 3003 3004 3005 3005 3005 3006 3006 3007 3007 3008 3009 3010 3010 3011 3011 3012 3013 3014 3015 3016 3016 3017 3018 3018 3019 3020 3020 3020 3021 3021 3021 3021 3021 3021 3021 3020 3020 3020 3021 3021 3021 3020 3020 3020 3020 3020 3020
2987 2987 2986 2986 2986 2985 2985 2985 2985 2985 2984 2984 2984 2984 2984 2984 2984 2984 2984 2984 2984 2985 2985 2985 2985 2985 2985 2986 2987 2989 2991 2993 2994 2995 2996 2997 2998 3000 3001 3002 3002 3003 3003 3003 3004 3004 3005 3006 3007 3008 3009 3009 3010 3010 3011 3012 3013 3014 3015 3015 3016 3017 3017 3018 3018 3019 3019 3020 3020 3020 3020 3020 3020 3019 3019 3019 3020 3020 3020 3019 3019 3019 3019 3019 3019 3019
2987 2987 2986 2986 2986 2985 2985 2985 2984 2984 2984 2984 2984 2984 2983 2983 2983 2983 2983 2983 2983 2984 2984 2984 2984 2984 2984 2985 2986 2987 2990 2992 2994 2995 2996 2996 2997 2998 2999 3000 3000 3000 3001 3001 3001 3002 3003 3004 3005 3006 3007 3008 3008 3009 3010 3011 3011 3012 3013 3014 3015 3016 3016 3017 3017 3018 3018 3018 3019 3019 3019 3019 3018 3018 3018 3018 3019 3019 3019 3018 3018 3018 3018 3018 3018 3019
2986 2986 2986 2986 2985 2985 2984 2984 2984 2983 2983 2983 2983 2983 2982 2983 2982 2982 2982 2982 2982 2982 2983 2983 2983 2983 2983 2983 2984 2986 2988 2991 2993 2995 2995 2996 2996 2996 2997 2997 2998 2998 2998 2999 2999 3000 3001 3002 3003 3005 3006 3006 3007 3008 3009 3009 3010 3011 3012 3013 3014 3014 3015 3016 3016 3016 3017 3017 3017 3017 3017 3017 3017 3017 3017 3018 3018 3018 3017 3017 3017 3017 3017 3017 3018 3018
2986 2985 2985 2985 2985 2984 2984 2983 2983 2982 2982 2982 2981 2981 2981 2981 2981 2981 2981 2981 2981 2981 2981 2982 2983 2983 2983 2983 2983 2984 2987 2990 2992 2993 2994 2993 2993 2993 2993 2994 2995 2995 2996 2996 2997 2999 3000 3001 3001 3003 3004 3005 3006 3007 3008 3008 3009 3010 3011 3012 3012 3013 3014 3014 3015 3015 3016 3016 3016 3016 3016 3016 3016 3016 3017 3017 3017 3017 3016 3016 3016 3016 3016 3016 3017 3018
2985 2984 2984 2984 2984 2984 2983 2983 2982 2982 2981 2981 2981 2980 2980 2980 2980 2980 2980 2980 2980 2980 2980 2981 2981 2982 2983 2983 2983 2983 2984 2986 2987 2988 2989 2988 2988 2989 2990 2991 2991 2992 2993 2994 2995 2996 2998 2999 3000 3001 3002 3003 3005 3006 3006 3007 3008 3009 3010 3011 3011 3012 3012 3013 3013 3014 3014 3014 3015 3015 3015 3015 3015 3016 3016 3016 3016 3016 3016 3015 3015 3015 3016 3016 3017 3017
2983 2983 2983 2983 2983 2983 2982 2982 2982 2981 2981 2980 2980 2980 2979 2979 2979 2979 2979 2979 2979 2979 2979 2980 2980 2981 2981 2982 2982 2982 2982 2982 2982 2983 2983 2984 2985 2986 2987 2988 2989 2990 2991 2991 2993 2994 2996 2998 2999 3000 3001 3002 3003 3004 3006 3006 3007 3008 3009 3009 3010 3011 3011 3011 3012 3012 3013 3013 3014 3014 3014 3014 3015 3015 3015 3015 3015 3015 3015 3014 3014 3015 3015 3016 3016 3016
2981 2982 2982 2982 2982 2982 2981 2981 2981 2981 2980 2980 2979 2979 2979 2978 2978 2978 2978 2978 2978 2978 2978 2978 2979 2979 2980 2981 2981 2981 2981 2981 2981 2981 2982 2982 2983 2984 2985 2986 2987 2988 2989 2990 2991 2992 2994 2996 2997 2998 2999 3001 3002 3003 3004 3005 3006 3007 3007 3008 3009 3009 3010 3010 3011 3011 3011 3012 3012 3013 3013 3013 3014 3014 3014 3014 3014 3014 3014 3013 3014 3014 3015 3015 3016 3016
2981 2980 2980 2981 2981 2981 2981 2980 2980 2980 2979 2979 2979 2978 2978 2977 2977 2977 2977 2977 2977 2977 2977 2977 2977 2978 2978 2979 2979 2980 2980 2980 2981 2981 2981 2982 2982 2983 2984 2985 2986 2986 2987 2988 2989 2991 2993 2994 2995 2996 2998 2999 3001 3002 3003 3004 3005 3006 3006 3007 3007 3008 3008 3009 3009 3010 3011 3011 3011 3011 3012 3013 3013 3013 3013 3013 3013 3013 3013 3013 3013 3014 3014 3015 3015 3016
2980 2980 2979 2979 2979 2979 2979 2979 2979 2979 2978 2978 2978 2977 2977 2977 2976 2976 2976 2976 2976 2976 2976 2976 2976 2976 2976 2977 2977 2978 2978 2978 2979 2979 2980 2980 2981 2982 2982 2983 2984 2985 2986 2986 2988 2989 2991 2992 2994 2995 2996 2998 2999 3001 3001 3002 3003 3004 3005 3006 3006 3006 3007 3007 3008 3009 3009 3010 3010 3011 3011 3012 3012 3012 3012 3012 3012 3012 3012 3012 3013 3013 3014 3014 3015 3015
2979 2979 2978 2978 2978 2978 2978 2978 2978 2978 2977 2977 2977 2977 2976 2976 2976 2976 2975 2975 2975 2975 2975 2975 2975 2975 2975 2975 2976 2976 2976 2976 2977 2977 2978 2979 2979 2980 2981 2982 2983 2983 2984 2985 2986 2988 2990 2991 2992 2993 2995 2996 2998 2999 3000 3001 3002 3003 3003 3004 3005 3005 3006 3006 3007 3008 3008 3009 3009 3010 3011 3011 3011 3011 3011 3011 3011 3011 3011 3012 3012 3013 3014 3014 3014 3015
2978 2978 2978 2977 2977 2976 2976 2976 2976 2976 2976 2976 2976 2976 2976 2975 2975 2975 2974 2974 2974 2974 2974 2974 2974 2974 2974 2974 2974 2974 2974 2975 2975 2976 2976 2977 2978 2979 2980 2981 2981 2982 2983 2984 2985 2986 2988 2989 2991 2992 2994 2995 2996 2997 2998 2999 3000 3001 3002 3002 3003 3004 3005 3005 3006 3006 3007 3007 3008 3009 3010 3010 3011 3011 3011 3011 3011 3011 3011 3012 3012 3013 3013 3014 3014 3014
2977 2977 2976 2976 2976 2975 2975 2975 2975 2975 2975 2975 2975 2975 2975 2974 2974 2974 2973 2973 2973 2973 2973 2972 2972 2972 2972 2972 2972 2973 2973 2973 2974 2974 2975 2976 2976 2977 2978 2979 2980 2981 2981 2982 2983 2985 2986 2988 2989 2991 2993 2994 2995 2996 2997 2998 2999 2999 3000 3001 3002 3002 3003 3004 3005 3005 3006 3006 3007 3009 3009 3009 3010 3010 3010 3010 3010 3011 3011 3011 3012 3012 3013 3013 3014 3014
2975 2975 2975 2975 2974 2974 2973 2973 2973 2973 2973 2973 2973 2973 2973 2973 2973 2972 2972 2972 2972 2972 2971 2971 2971 2971 2971 2971 2971 2971 2971 2972 2972 2973 2974 2974 2975 2976 2976 2977 2978 2979 2980 2981 2982 2983 2985 2986 2988 2990 2991 2992 2993 2994 2995 2996 2997 2998 2999 3000 3000 3001 3002 3003 3004 3004 3005 3006 3007 3008 3008 3009 3009 3009 3009 3010 3010 3010 3011 3011 3011 3012 3012 3013 3013 3014
2974 2973 2973 2973 2972 2972 2972 2972 2972 2971 2971 2971 2971 2971 2971 2971 2971 2971 2971 2971 2971 2971 2971 2970 2970 2970 2970 2970 2970 2970 2970 2971 2971 2972 2972 2973 2974 2974 2975 2976 2976 2977 2978 2979 2980 2982 2983 2985 2987 2988 2990 2991 2992 2993 2994 2995 2996 2996 2997 2998 2999 3000 3001 3002 3003 3003 3004 3005 3006 3007 3007 3008 3008 3008 3009 3009 3010 3010 3010 3011 3011 3012 3012 3013 3013 3014
2971 2971 2971 2971 2971 2971 2970 2970 2970 2970 2970 2970 2970 2970 2970 2970 2970 2970 2969 2969 2969 2969 2969 2969 2969 2968 2968 2968 2968 2969 2969 2969 2970 2970 2971 2971 2972 2973 2973 2974 2975 2976 2976 2978 2979 2981 2982 2984 2986 2987 2988 2989 2991 2991 2992 2993 2994 2995 2996 2997 2998 2999 3000 3001 3001 3002 3003 3005 3006 3006 3006 3007 3007 3008 3008 3009 3009 3010 3010 3011 3011 3011 3012 3012 3013 3013
2970 2969 2969 2969 2969 2969 2968 2968 2968 2968 2968 2967 2967 2967 2968 2968 2968 2968 2968 2968 2968 2968 2968 2968 2967 2967 2967 2967 2967 2967 2967 2968 2968 2969 2969 2970 2971 2971 2972 2973 2973 2974 2975 2976 2978 2980 2981 2983 2985 2986 2987 2988 2989 2990 2991 2992 2993 2994 2995 2996 2997 2998 2999 3000 3001 3002 3003 3004 3005 3006 3006 3006 3007 3007 3008 3008 3009 3009 3010 3010 3011 3011 3011 3012 3013 3013
2967 2967 2967 2967 2967 2967 2966 2966 2966 2966 2966 2966 2966 2966 2966 2966 2966 2966 2966 2966 2966 2966 2966 2966 2966 2966 2966 2966 2966 2966 2966 2966 2967 2967 2968 2969 2969 2970 2971 2971 2972 2973 2974 2976 2977 2979 2981 2982 2984 2985 2986 2987 2988 2989 2990 2991 2991 2993 2994 2995 2996 2997 2997 2999 3000 3001 3002 3003 3004 3005 3005 3006 3006 3007 3007 3008 3008 3009 3010 3010 3011 3011 3011 3012 3012 3013
2965 2965 2965 2965 2965 2965 2964 2964 2964 2964 2963 2963 2963 2963 2963 2964 2964 2964 2964 2964 2964 2965 2965 2965 2965 2965 2965 2965 2964 2964 2965 2965 2965 2966 2967 2967 2968 2969 2970 2970 2971 2972 2973 2975 2976 2978 2979 2981 2982 2984 2985 2986 2987 2988 2989 2990 2991 2991 2993 2994 2995 2996 2996 2998 2999 3001 3002 3002 3003 3004 3004 3005 3006 3006 3007 3007 3008 3009 3009 3010 3010 3011 3011 3012 3012 3013
2963 2963 2963 2963 2962 2962 2962 2962 2961 2961 2961 2961 2961 2961 2961 2961 2961 2962 2962 2962 2963 2963 2963 2963 2964 2963 2963 2963 2963 2963 2963 2964 2964 2964 2965 2966 2967 2968 2968 2969 2970 2971 2972 2974 2975 2976 2978 2980 2981 2982 2983 2985 2986 2986 2987 2989 2990 2991 2992 2993 2994 2995 2996 2997 2999 3000 3001 3002 3002 3003 3004 3005 3005 3006 3006 3007 3008 3008 3009 3010 3010 3011 3011 3012 3012 3013
2961 2961 2960 2960 2960 2960 2960 2960 2959 2959 2959 2959 2959 2959 2959 2959 2959 2960 2960 2960 2961 2961 2961 2962 2962 2962 2962 2962 2962 2962 2962 2962 2962 2963 2964 2965 2966 2966 2967 2968 2969 2970 2971 2972 2974 2975 2977 2978 2980 2981 2982 2983 2984 2986 2986 2988 2989 2990 2991 2991 2992 2994 2995 2997 2998 2999 3000 3001 3002 3002 3003 3004 3005 3005 3006 3006 3007 3008 3009 3009 3010 3011 3011 3012 3012 3013
2958 2958 2958 2958 2958 2958 2957 2957 2957 2957 2957 2957 2957 2957 2957 2957 2957 2958 2958 2958 2959 2960 2960 2961 2961 2961 2961 2961 2961 2961 2961 2961 2961 2962 2962 2963 2964 2966 2966 2967 2968 2969 2970 2971 2973 2974 2976 2977 2978 2980 2981 2982 2983 2984 2986 2987 2988 2989 2990 2991 2991 2993 2995 2996 2997 2999 3000 3000 3001 3002 3003 3003 3004 3005 3006 3006 3007 3008 3008 3009 3010 3011 3011 3012 3012 3013
2956 2956 2956 2955 2955 2955 2955 2955 2955 2955 2955 2955 2955 2955 2955 2955 2956 2956 2956 2957 2957 2958 2958 2959 2959 2960 2960 2960 2959 2960 2960 2960 2961 2961 2961 2962 2963 2964 2965 2966 2967 2968 2969 2971 2972 2973 2975 2976 2977 2978 2980 2981 2982 2983 2985 2986 2987 2988 2989 2990 2991 2992 2994 2996 2997 2998 2999 3000 3001 3001 3002 3003 3004 3005 3005 3006 3007 3007 3008 3009 3010 3011 3011 3012 3012 3013
2953 2953 2953 2953 2953 2953 2952 2952 2952 2952 2952 2953 2953 2953 2953 2953 2953 2954 2954 2955 2956 2956 2957 2957 2958 2958 2958 2958 2958 2958 2958 2959 2959 2960 2961 2961 2962 2963 2964 2965 2966 2967 2968 2970 2971 2972 2973 2975 2976 2977 2978 2980 2981 2983 2984 2985 2986 2986 2988 2989 2991 2992 2994 2995 2996 2997 2998 2999 3000 3001 3002 3002 3003 3004 3005 3006 3006 3007 3008 3009 3010 3011 3011 3012 3012 3013